Location: Unspecified
(54.1780°N, 0.0000°E)
Time: 04:49:52
(UTC+00:00)

Explorer 7 - Pass Details

Date: 22 August 2020
Orbit: 484 x 679 km, 50.3° (Epoch: 26 September)

Event Time Altitude Azimuth Distance (km) Brightness Sun altitude
Rises 21:17:11 0° 273° (W) 2,652 11.0 -15.7°
Reaches altitude 10° 21:21:05 10° 235° (SW) 1,715 9.4 -16.1°
Maximum altitude 21:22:00 11° 221° (SW) 1,662 9.2 -16.2°
Drops below altitude 10° 21:22:54 10° 207° (SSW) 1,697 9.1 -16.2°
Enters shadow 21:23:06 10° 204° (SSW) 1,716 9.1 -16.3°
